SBI7520 VNKT-UTAA

Flight info

Callsign SBI7520
Flight time 4h 6m
Altitude 36000
Route VNKT N0440F360 DARK1G DARKE NARAN L626 HW W85 SP M890 SULOM L509 TAPIS P173 DAVET B475 NINOP A125 KEMOR KEM29A GUDRA CI29L FI29L RW29L UTAA
Aircraft B738/M-SDGIWZ/S

Departure

Time 2026-04-29 08:42
Airport Tribhuvan International Airport (VNKT)

Arrival

Time 2026-04-29 12:48
Airport Ashgabat International Airport (UTAA)
Time Latitude Longitude Altitude Speed Heading
2026-04-29 08:22 27.70143 85.35913 4399 ft 0 kts 290°
2026-04-29 08:37 27.70139 85.35925 4399 ft 3 kts 290°
2026-04-29 08:38 27.70128 85.35960 4399 ft 6 kts 289°
2026-04-29 08:38 27.70109 85.36008 4399 ft 5 kts 330°
2026-04-29 08:38 27.70094 85.36008 4399 ft 0 kts 86°
2026-04-29 08:38 27.70091 85.35998 4399 ft 4 kts 72°
2026-04-29 08:39 27.70089 85.35986 4399 ft 0 kts 85°
2026-04-29 08:39 27.70109 85.36005 4399 ft 9 kts 26°
2026-04-29 08:39 27.70235 85.36063 4399 ft 27 kts 21°
2026-04-29 08:39 27.70404 85.36139 4399 ft 24 kts 21°
2026-04-29 08:40 27.70544 85.36214 4399 ft 19 kts 45°
2026-04-29 08:40 27.70620 85.36333 4399 ft 19 kts 35°
2026-04-29 08:40 27.70763 85.36419 4399 ft 25 kts 22°
2026-04-29 08:40 27.70855 85.36526 4399 ft 12 kts 49°
2026-04-29 08:41 27.70914 85.36510 4399 ft 10 kts 269°
2026-04-29 08:41 27.70833 85.36450 4399 ft 32 kts 202°
2026-04-29 08:41 27.70415 85.36262 4399 ft 96 kts 202°
2026-04-29 08:41 27.69605 85.35896 4399 ft 150 kts 203°
2026-04-29 08:42 27.68513 85.35407 4486 ft 183 kts 203°
2026-04-29 08:42 27.67302 85.34873 4933 ft 192 kts 204°
2026-04-29 08:42 27.66173 85.34119 5556 ft 188 kts 223°
2026-04-29 08:42 27.65338 85.33009 6050 ft 191 kts 241°
2026-04-29 08:43 27.64944 85.31523 6245 ft 207 kts 265°
2026-04-29 08:43 27.65092 85.29861 6383 ft 229 kts 286°
2026-04-29 08:43 27.65986 85.28293 6632 ft 249 kts 315°
2026-04-29 08:43 27.67378 85.27079 7135 ft 260 kts 329°
2026-04-29 08:44 27.69121 85.26510 7761 ft 267 kts
2026-04-29 08:44 27.70899 85.26981 8475 ft 270 kts 22°
2026-04-29 08:44 27.72509 85.28066 9083 ft 276 kts 43°
2026-04-29 08:44 27.73594 85.29859 9702 ft 278 kts 66°
2026-04-29 08:45 27.74344 85.31828 10375 ft 279 kts 65°
2026-04-29 08:45 27.75181 85.33863 10808 ft 289 kts 66°
2026-04-29 08:45 27.75745 85.36000 11495 ft 287 kts 85°
2026-04-29 08:45 27.75632 85.38242 12093 ft 288 kts 102°
2026-04-29 08:46 27.75040 85.40379 12672 ft 289 kts 117°
2026-04-29 08:46 27.73844 85.42177 13155 ft 290 kts 141°
2026-04-29 08:46 27.72186 85.43462 13799 ft 287 kts 153°
2026-04-29 08:46 27.70323 85.44244 14190 ft 292 kts 171°
2026-04-29 08:47 27.68321 85.44359 14790 ft 288 kts 187°
2026-04-29 08:47 27.66394 85.43837 15230 ft 291 kts 205°
2026-04-29 08:47 27.64673 85.42648 15729 ft 291 kts 221°
2026-04-29 08:47 27.63310 85.40986 16212 ft 292 kts 236°
2026-04-29 08:48 27.62446 85.38927 16625 ft 295 kts 256°
2026-04-29 08:48 27.62186 85.36616 17129 ft 295 kts 270°
2026-04-29 08:48 27.62465 85.34338 17522 ft 300 kts 288°
2026-04-29 08:48 27.63429 85.32241 17943 ft 303 kts 305°
2026-04-29 08:49 27.64667 85.30343 18285 ft 309 kts 304°
2026-04-29 08:49 27.65926 85.28307 18332 ft 325 kts 303°
2026-04-29 08:49 27.67244 85.26160 18384 ft 340 kts 304°
2026-04-29 08:49 27.68635 85.23937 18434 ft 354 kts 304°
2026-04-29 08:50 27.70048 85.21609 18481 ft 367 kts 300°
2026-04-29 08:50 27.71249 85.19017 18532 ft 379 kts 292°
2026-04-29 08:50 27.72276 85.16243 18582 ft 390 kts 292°
2026-04-29 08:50 27.73299 85.13364 18641 ft 400 kts 289°
2026-04-29 08:51 27.74039 85.10323 18866 ft 405 kts 278°
2026-04-29 08:51 27.74120 85.07155 19146 ft 407 kts 264°
2026-04-29 08:51 27.73796 85.03974 19501 ft 408 kts 263°
2026-04-29 08:51 27.73488 85.00791 19741 ft 412 kts 264°
2026-04-29 08:52 27.73208 84.97578 20146 ft 412 kts 264°
2026-04-29 08:52 27.72917 84.94366 20357 ft 416 kts 264°
2026-04-29 08:52 27.72614 84.91132 20739 ft 415 kts 264°
2026-04-29 08:52 27.72308 84.87853 20932 ft 420 kts 261°
2026-04-29 08:53 27.72006 84.84584 21075 ft 425 kts 261°
2026-04-29 08:53 27.71690 84.81245 21354 ft 427 kts 260°
2026-04-29 08:53 27.71367 84.77919 21600 ft 430 kts 260°
2026-04-29 08:53 27.71039 84.74554 21867 ft 431 kts 260°
2026-04-29 08:54 27.70716 84.71221 22156 ft 432 kts 260°
2026-04-29 08:54 27.70388 84.67839 22430 ft 433 kts 260°
2026-04-29 08:54 27.70059 84.64463 22709 ft 434 kts 260°
2026-04-29 08:54 27.69728 84.61084 22969 ft 435 kts 260°
2026-04-29 08:55 27.69396 84.57696 23242 ft 435 kts 260°
2026-04-29 08:55 27.69066 84.54336 23514 ft 435 kts 260°
2026-04-29 08:55 27.68732 84.50938 23755 ft 436 kts 260°
2026-04-29 08:55 27.68445 84.47545 24003 ft 438 kts 263°
2026-04-29 08:56 27.68445 84.44074 24215 ft 443 kts 270°
2026-04-29 08:56 27.68839 84.40651 24445 ft 448 kts 278°
2026-04-29 08:56 27.69700 84.37267 24643 ft 452 kts 285°
2026-04-29 08:56 27.70748 84.33926 24862 ft 452 kts 285°
2026-04-29 08:57 27.71783 84.30549 25028 ft 452 kts 284°
2026-04-29 08:57 27.72776 84.27218 25213 ft 452 kts 284°
2026-04-29 08:57 27.73790 84.23831 25364 ft 454 kts 284°
2026-04-29 08:57 27.74808 84.20458 25553 ft 454 kts 284°
2026-04-29 08:58 27.75817 84.17120 25783 ft 453 kts 284°
2026-04-29 08:58 27.76831 84.13758 25953 ft 454 kts 284°
2026-04-29 08:58 27.77844 84.10397 26112 ft 455 kts 284°
2026-04-29 08:58 27.78872 84.06986 26317 ft 455 kts 284°
2026-04-29 08:59 27.79879 84.03648 26479 ft 456 kts 284°
2026-04-29 08:59 27.80909 84.00227 26635 ft 457 kts 284°
2026-04-29 08:59 27.81926 83.96849 26861 ft 455 kts 284°
2026-04-29 08:59 27.82945 83.93462 27072 ft 455 kts 284°
2026-04-29 09:00 27.83952 83.90107 27178 ft 456 kts 284°
2026-04-29 09:00 27.84971 83.86709 27348 ft 456 kts 284°
2026-04-29 09:00 27.85988 83.83321 27537 ft 456 kts 284°
2026-04-29 09:00 27.86997 83.79954 27680 ft 456 kts 284°
2026-04-29 09:01 27.88012 83.76563 27805 ft 457 kts 284°
2026-04-29 09:01 27.89031 83.73154 27971 ft 456 kts 284°
2026-04-29 09:01 27.90037 83.69787 28088 ft 457 kts 284°
2026-04-29 09:01 27.91050 83.66394 28220 ft 457 kts 284°
2026-04-29 09:02 27.92058 83.63014 28377 ft 456 kts 284°
2026-04-29 09:02 27.93080 83.59581 28481 ft 457 kts 284°
2026-04-29 09:02 27.94085 83.56205 28799 ft 452 kts 284°
2026-04-29 09:02 27.95085 83.52872 29094 ft 449 kts 285°
2026-04-29 09:03 27.96170 83.49589 29181 ft 451 kts 287°
2026-04-29 09:03 27.97348 83.46273 29381 ft 450 kts 287°
2026-04-29 09:03 27.98486 83.43041 29584 ft 447 kts 287°
2026-04-29 09:03 27.99624 83.39745 29741 ft 446 kts 287°
2026-04-29 09:04 28.00743 83.36494 29991 ft 443 kts 287°
2026-04-29 09:04 28.01863 83.33244 30178 ft 442 kts 286°
2026-04-29 09:04 28.02971 83.30025 30281 ft 442 kts 286°
2026-04-29 09:04 28.04079 83.26793 30422 ft 441 kts 286°
2026-04-29 09:05 28.05178 83.23573 30621 ft 439 kts 286°
2026-04-29 09:05 28.06271 83.20367 30796 ft 438 kts 286°
2026-04-29 09:05 28.07371 83.17142 30881 ft 439 kts 286°
2026-04-29 09:05 28.08477 83.13917 31046 ft 437 kts 287°
2026-04-29 09:06 28.09571 83.10748 31298 ft 434 kts 287°
2026-04-29 09:06 28.10666 83.07568 31512 ft 431 kts 287°
2026-04-29 09:06 28.11747 83.04412 31665 ft 430 kts 287°
2026-04-29 09:07 28.13877 82.98154 31862 ft 429 kts 287°
2026-04-29 09:07 28.14938 82.95003 32042 ft 427 kts 287°
2026-04-29 09:07 28.15989 82.91876 32328 ft 422 kts 287°
2026-04-29 09:07 28.17025 82.88791 32579 ft 418 kts 287°
2026-04-29 09:08 28.18059 82.85713 32703 ft 417 kts 287°
2026-04-29 09:08 28.20116 82.79624 32966 ft 415 kts 288°
2026-04-29 09:08 28.21146 82.76580 33177 ft 411 kts 288°
2026-04-29 09:09 28.22160 82.73570 33321 ft 410 kts 288°
2026-04-29 09:09 28.24186 82.67560 33479 ft 410 kts 288°
2026-04-29 09:10 28.26243 82.61529 33639 ft 409 kts 288°
2026-04-29 09:10 28.28265 82.55522 33793 ft 409 kts 288°
2026-04-29 09:10 28.29610 82.51495 33921 ft 408 kts 288°
2026-04-29 09:11 28.30265 82.49531 33979 ft 407 kts 288°
2026-04-29 09:11 28.32259 82.43549 34140 ft 406 kts 288°
2026-04-29 09:12 28.34247 82.37575 34293 ft 405 kts 288°
2026-04-29 09:12 28.36247 82.31585 34458 ft 404 kts 288°
2026-04-29 09:13 28.38218 82.25652 34614 ft 404 kts 288°
2026-04-29 09:13 28.40211 82.19723 34757 ft 404 kts 288°
2026-04-29 09:14 28.42207 82.13789 34899 ft 403 kts 288°
2026-04-29 09:14 28.44170 82.07821 35043 ft 402 kts 288°
2026-04-29 09:15 28.46143 82.01886 35189 ft 401 kts 288°
2026-04-29 09:15 28.48107 81.96008 35334 ft 400 kts 288°
2026-04-29 09:16 28.50032 81.90108 35464 ft 399 kts 288°
2026-04-29 09:16 28.51957 81.84239 35633 ft 397 kts 288°
2026-04-29 09:17 28.53914 81.78352 35641 ft 399 kts 288°
2026-04-29 09:17 28.55854 81.72470 35642 ft 401 kts 288°
2026-04-29 09:18 28.57815 81.66537 35641 ft 402 kts 288°
2026-04-29 09:18 28.59668 81.60536 35643 ft 402 kts 284°
2026-04-29 09:19 28.61154 81.54409 35649 ft 402 kts 284°
2026-04-29 09:19 28.62725 81.48321 35664 ft 402 kts 284°
2026-04-29 09:20 28.64270 81.42270 35678 ft 401 kts 284°
2026-04-29 09:20 28.65811 81.36173 35694 ft 402 kts 284°
2026-04-29 09:21 28.67382 81.30039 35696 ft 402 kts 284°
2026-04-29 09:21 28.68945 81.23975 35696 ft 401 kts 284°
2026-04-29 09:22 28.70522 81.17893 35695 ft 402 kts 284°
2026-04-29 09:22 28.72064 81.11790 35696 ft 402 kts 283°
2026-04-29 09:23 28.73580 81.05708 35695 ft 400 kts 284°
2026-04-29 09:23 28.75114 80.99625 35696 ft 400 kts 284°
2026-04-29 09:24 28.76655 80.93534 35696 ft 399 kts 284°
2026-04-29 09:24 28.78182 80.87468 35696 ft 398 kts 284°
2026-04-29 09:25 28.79700 80.81441 35696 ft 398 kts 284°
2026-04-29 09:25 28.81259 80.75369 35694 ft 399 kts 284°
2026-04-29 09:26 28.82786 80.69349 35696 ft 398 kts 284°
2026-04-29 09:26 28.84334 80.63270 35695 ft 398 kts 284°
2026-04-29 09:27 28.85826 80.57233 35696 ft 398 kts 284°
2026-04-29 09:27 28.87304 80.51166 35696 ft 398 kts 284°
2026-04-29 09:28 28.88812 80.45104 35693 ft 398 kts 284°
2026-04-29 09:28 28.90348 80.39036 35695 ft 398 kts 284°
2026-04-29 09:29 28.91849 80.32985 35694 ft 398 kts 284°
2026-04-29 09:29 28.94084 80.23837 35697 ft 398 kts 284°
2026-04-29 09:30 28.95573 80.17780 35695 ft 399 kts 283°
2026-04-29 09:30 28.96600 80.11633 35697 ft 395 kts 275°
2026-04-29 09:31 28.97211 80.05380 35695 ft 397 kts 276°
2026-04-29 09:31 28.97910 79.99170 35697 ft 397 kts 276°
2026-04-29 09:32 28.98574 79.92918 35695 ft 396 kts 276°
2026-04-29 09:32 28.99230 79.86722 35696 ft 394 kts 276°
2026-04-29 09:33 28.99845 79.80505 35695 ft 394 kts 275°
2026-04-29 09:33 29.00415 79.74275 35695 ft 394 kts 275°
2026-04-29 09:34 29.01011 79.68096 35695 ft 394 kts 276°
2026-04-29 09:34 29.01629 79.61877 35696 ft 393 kts 276°
2026-04-29 09:35 29.02227 79.55720 35695 ft 391 kts 275°
2026-04-29 09:35 29.03562 79.49704 35702 ft 395 kts 289°
2026-04-29 09:36 29.06146 79.44151 35691 ft 403 kts 305°
2026-04-29 09:36 29.10144 79.39661 35693 ft 406 kts 310°
2026-04-29 09:37 29.14159 79.35135 35694 ft 405 kts 308°
2026-04-29 09:37 29.18155 79.30631 35693 ft 406 kts 309°
2026-04-29 09:38 29.22225 79.26164 35695 ft 405 kts 309°
2026-04-29 09:38 29.26234 79.21641 35695 ft 404 kts 308°
2026-04-29 09:39 29.30213 79.17139 35696 ft 405 kts 309°
2026-04-29 09:39 29.34211 79.12646 35694 ft 403 kts 309°
2026-04-29 09:40 29.38227 79.08166 35695 ft 403 kts 309°
2026-04-29 09:40 29.42236 79.03711 35695 ft 404 kts 310°
2026-04-29 09:41 29.46249 78.99226 35695 ft 404 kts 310°
2026-04-29 09:41 29.50227 78.94770 35696 ft 401 kts 310°
2026-04-29 09:42 29.54194 78.90250 35707 ft 401 kts 309°
2026-04-29 09:42 29.58153 78.85745 35723 ft 402 kts 310°
2026-04-29 09:43 29.62132 78.81287 35746 ft 401 kts 310°
2026-04-29 09:43 29.66107 78.76810 35764 ft 402 kts 310°
2026-04-29 09:44 29.70073 78.72304 35775 ft 403 kts 310°
2026-04-29 09:44 29.74031 78.67792 35777 ft 401 kts 310°
2026-04-29 09:45 29.77990 78.63310 35778 ft 402 kts 310°
2026-04-29 09:45 29.81994 78.58829 35776 ft 402 kts 310°
2026-04-29 09:46 29.85987 78.54314 35778 ft 401 kts 310°
2026-04-29 09:46 29.89929 78.49770 35776 ft 402 kts 309°
2026-04-29 09:47 29.93879 78.45271 35777 ft 403 kts 310°
2026-04-29 09:47 29.97854 78.40777 35777 ft 401 kts 310°
2026-04-29 09:48 30.01829 78.36262 35776 ft 401 kts 310°
2026-04-29 09:48 30.05800 78.31740 35779 ft 402 kts 309°
2026-04-29 09:49 30.09747 78.27201 35776 ft 402 kts 309°
2026-04-29 09:49 30.13388 78.22438 35776 ft 395 kts 300°
2026-04-29 09:50 30.15706 78.16767 35777 ft 388 kts 284°
2026-04-29 09:50 30.16572 78.10686 35775 ft 385 kts 268°
2026-04-29 09:51 30.15707 78.04601 35778 ft 388 kts 257°
2026-04-29 09:51 30.14182 77.98611 35776 ft 389 kts 256°
2026-04-29 09:52 30.12728 77.92628 35778 ft 387 kts 256°
2026-04-29 09:52 30.11239 77.86685 35778 ft 388 kts 256°
2026-04-29 09:53 30.09724 77.80719 35775 ft 388 kts 256°
2026-04-29 09:53 30.08178 77.74793 35778 ft 388 kts 256°
2026-04-29 09:54 30.06627 77.68819 35776 ft 389 kts 256°
2026-04-29 09:54 30.05104 77.62851 35777 ft 388 kts 256°
2026-04-29 09:55 30.03776 77.56868 35775 ft 384 kts 263°
2026-04-29 09:55 30.03899 77.50754 35781 ft 385 kts 278°
2026-04-29 09:56 30.05446 77.44826 35776 ft 392 kts 296°
2026-04-29 09:56 30.08552 77.39647 35776 ft 398 kts 306°
2026-04-29 09:57 30.10574 77.37423 35773 ft 407 kts 319°
2026-04-29 09:57 30.13059 77.35774 35785 ft 416 kts 326°
2026-04-29 09:57 30.18186 77.32787 35775 ft 415 kts 324°
2026-04-29 09:58 30.23281 77.29695 35774 ft 416 kts 325°
2026-04-29 09:58 30.28447 77.26668 35778 ft 418 kts 326°
2026-04-29 09:59 30.33596 77.23677 35778 ft 416 kts 326°
2026-04-29 09:59 30.38599 77.20383 35777 ft 407 kts 315°
2026-04-29 10:00 30.42561 77.15896 35778 ft 398 kts 303°
2026-04-29 10:00 30.45856 77.10798 35777 ft 396 kts 302°
2026-04-29 10:01 30.49234 77.05750 35777 ft 397 kts 302°
2026-04-29 10:01 30.52583 77.00704 35777 ft 398 kts 302°
2026-04-29 10:02 30.55920 76.95631 35777 ft 396 kts 302°
2026-04-29 10:02 30.59254 76.90511 35776 ft 396 kts 302°
2026-04-29 10:03 30.62552 76.85452 35777 ft 395 kts 302°
2026-04-29 10:03 30.65864 76.80355 35777 ft 395 kts 301°
2026-04-29 10:04 30.68594 76.74961 35786 ft 388 kts 290°
2026-04-29 10:04 30.70650 76.69168 35799 ft 388 kts 289°
2026-04-29 10:05 30.72715 76.63411 35813 ft 387 kts 289°
2026-04-29 10:05 30.74738 76.57599 35826 ft 387 kts 289°
2026-04-29 10:06 30.76736 76.51817 35831 ft 388 kts 289°
2026-04-29 10:06 30.78731 76.46005 35831 ft 388 kts 289°
2026-04-29 10:07 30.80717 76.40196 35831 ft 388 kts 289°
2026-04-29 10:07 30.82704 76.34364 35832 ft 387 kts 288°
2026-04-29 10:08 30.84680 76.28554 35830 ft 387 kts 288°
2026-04-29 10:08 30.86653 76.22744 35831 ft 387 kts 288°
2026-04-29 10:09 30.88614 76.16953 35830 ft 387 kts 288°
2026-04-29 10:09 30.90590 76.11115 35831 ft 388 kts 288°
2026-04-29 10:10 30.92567 76.05276 35824 ft 389 kts 288°
2026-04-29 10:10 30.94536 75.99436 35809 ft 389 kts 289°
2026-04-29 10:11 30.96495 75.93581 35802 ft 390 kts 288°
2026-04-29 10:11 30.98446 75.87710 35800 ft 390 kts 288°
2026-04-29 10:12 31.00416 75.81827 35802 ft 390 kts 289°
2026-04-29 10:12 31.02425 75.75937 35788 ft 392 kts 289°
2026-04-29 10:13 31.04435 75.70026 35770 ft 392 kts 289°
2026-04-29 10:13 31.06398 75.64129 35743 ft 392 kts 289°
2026-04-29 10:14 31.08367 75.58209 35722 ft 392 kts 289°
2026-04-29 10:14 31.10349 75.52280 35722 ft 392 kts 289°
2026-04-29 10:15 31.12240 75.46369 35723 ft 392 kts 286°
2026-04-29 10:15 31.13715 75.40244 35723 ft 390 kts 284°
2026-04-29 10:16 31.15200 75.34171 35724 ft 391 kts 284°
2026-04-29 10:16 31.16770 75.28102 35722 ft 392 kts 285°
2026-04-29 10:17 31.18342 75.22039 35722 ft 390 kts 285°
2026-04-29 10:17 31.19862 75.15987 35724 ft 391 kts 284°
2026-04-29 10:18 31.21351 75.09857 35722 ft 391 kts 284°
2026-04-29 10:18 31.22897 75.03810 35722 ft 392 kts 285°
2026-04-29 10:19 31.24426 74.97712 35722 ft 390 kts 284°
2026-04-29 10:19 31.25910 74.91607 35721 ft 390 kts 285°
2026-04-29 10:20 31.27447 74.85536 35723 ft 390 kts 285°
2026-04-29 10:20 31.28989 74.79504 35723 ft 390 kts 285°
2026-04-29 10:21 31.30485 74.73386 35722 ft 390 kts 284°
2026-04-29 10:21 31.31960 74.67306 35722 ft 390 kts 285°
2026-04-29 10:22 31.33574 74.61267 35719 ft 391 kts 292°
2026-04-29 10:22 31.36323 74.55810 35724 ft 397 kts 303°
2026-04-29 10:23 31.38199 74.53412 35725 ft 403 kts 314°
2026-04-29 10:23 31.40400 74.51397 35725 ft 407 kts 319°
2026-04-29 10:23 31.44929 74.47452 35720 ft 406 kts 317°
2026-04-29 10:24 31.49366 74.43402 35725 ft 406 kts 317°
2026-04-29 10:24 31.53804 74.39367 35722 ft 406 kts 317°
2026-04-29 10:25 31.58299 74.35352 35724 ft 405 kts 317°
2026-04-29 10:25 31.62766 74.31340 35722 ft 407 kts 317°
2026-04-29 10:26 31.67222 74.27299 35722 ft 407 kts 316°
2026-04-29 10:26 31.71647 74.23202 35723 ft 403 kts 316°
2026-04-29 10:27 31.78267 74.17135 35722 ft 404 kts 316°
2026-04-29 10:28 31.82719 74.13088 35721 ft 406 kts 316°
2026-04-29 10:28 31.87167 74.09064 35721 ft 406 kts 317°
2026-04-29 10:29 31.91652 74.05037 35725 ft 406 kts 317°
2026-04-29 10:29 31.96123 74.01022 35721 ft 405 kts 317°
2026-04-29 10:30 32.00572 73.96995 35722 ft 405 kts 317°
2026-04-29 10:30 32.04963 73.92895 35732 ft 405 kts 316°
2026-04-29 10:31 32.09375 73.88792 35739 ft 406 kts 316°
2026-04-29 10:31 32.13849 73.84724 35744 ft 406 kts 317°
2026-04-29 10:32 32.18322 73.80656 35748 ft 404 kts 316°
2026-04-29 10:32 32.22719 73.76573 35750 ft 404 kts 316°
2026-04-29 10:33 32.27119 73.72480 35750 ft 405 kts 316°
2026-04-29 10:33 32.31546 73.68373 35750 ft 405 kts 317°
2026-04-29 10:34 32.35959 73.64301 35749 ft 405 kts 317°
2026-04-29 10:34 32.40379 73.60222 35750 ft 405 kts 317°
2026-04-29 10:35 32.44841 73.56102 35748 ft 406 kts 317°
2026-04-29 10:35 32.49281 73.52008 35750 ft 406 kts 317°
2026-04-29 10:36 32.53686 73.47929 35750 ft 405 kts 317°
2026-04-29 10:36 32.58123 73.43791 35749 ft 406 kts 316°
2026-04-29 10:37 32.62554 73.39686 35755 ft 408 kts 317°
2026-04-29 10:37 32.67049 73.35576 35756 ft 407 kts 317°
2026-04-29 10:38 32.71502 73.31485 35763 ft 404 kts 316°
2026-04-29 10:38 32.75709 73.27178 35770 ft 400 kts 309°
2026-04-29 10:39 32.79110 73.22031 35776 ft 396 kts 300°
2026-04-29 10:39 32.82126 73.16589 35775 ft 396 kts 300°
2026-04-29 10:40 32.85205 73.11224 35776 ft 392 kts 301°
2026-04-29 10:40 32.88213 73.05830 35778 ft 392 kts 300°
2026-04-29 10:41 32.91206 73.00428 35778 ft 393 kts 300°
2026-04-29 10:41 32.94228 72.95015 35777 ft 393 kts 300°
2026-04-29 10:42 32.97232 72.89588 35776 ft 393 kts 300°
2026-04-29 10:42 33.00205 72.84168 35777 ft 394 kts 300°
2026-04-29 10:43 33.03236 72.78692 35777 ft 396 kts 301°
2026-04-29 10:43 33.06203 72.73315 35777 ft 398 kts 300°
2026-04-29 10:44 33.09197 72.67799 35778 ft 399 kts 300°
2026-04-29 10:44 33.12218 72.62236 35777 ft 401 kts 300°
2026-04-29 10:45 33.15279 72.56671 35777 ft 401 kts 301°
2026-04-29 10:45 33.18355 72.51096 35776 ft 402 kts 300°
2026-04-29 10:46 33.21370 72.45536 35779 ft 401 kts 300°
2026-04-29 10:46 33.24366 72.39941 35776 ft 402 kts 300°
2026-04-29 10:47 33.27420 72.34361 35779 ft 401 kts 301°
2026-04-29 10:47 33.30494 72.28836 35776 ft 399 kts 300°
2026-04-29 10:48 33.33530 72.23292 35775 ft 401 kts 300°
2026-04-29 10:48 33.36526 72.17696 35764 ft 400 kts 300°
2026-04-29 10:49 33.39554 72.12148 35750 ft 401 kts 300°
2026-04-29 10:49 33.42589 72.06570 35740 ft 402 kts 300°
2026-04-29 10:50 33.45622 72.00979 35727 ft 400 kts 300°
2026-04-29 10:50 33.48644 71.95376 35722 ft 401 kts 300°
2026-04-29 10:51 33.51667 71.89780 35719 ft 399 kts 298°
2026-04-29 10:51 33.52788 71.86764 35724 ft 396 kts 283°
2026-04-29 10:51 33.53260 71.83536 35730 ft 396 kts 277°
2026-04-29 10:52 33.53322 71.76968 35722 ft 397 kts 266°
2026-04-29 10:52 33.52871 71.70367 35723 ft 398 kts 268°
2026-04-29 10:53 33.52566 71.63779 35722 ft 399 kts 268°
2026-04-29 10:53 33.52154 71.57198 35722 ft 398 kts 267°
2026-04-29 10:54 33.51706 71.50579 35721 ft 398 kts 267°
2026-04-29 10:54 33.51279 71.43977 35720 ft 399 kts 267°
2026-04-29 10:55 33.50851 71.37373 35723 ft 398 kts 267°
2026-04-29 10:55 33.50427 71.30778 35723 ft 398 kts 267°
2026-04-29 10:56 33.50003 71.24217 35722 ft 398 kts 266°
2026-04-29 10:56 33.49588 71.17570 35724 ft 400 kts 267°
2026-04-29 10:57 33.49164 71.10967 35722 ft 399 kts 268°
2026-04-29 10:57 33.49804 71.04448 35728 ft 396 kts 284°
2026-04-29 10:58 33.51636 70.98267 35715 ft 398 kts 298°
2026-04-29 10:58 33.53331 70.95638 35731 ft 403 kts 310°
2026-04-29 10:58 33.55348 70.93300 35721 ft 406 kts 312°
2026-04-29 10:59 33.59399 70.88621 35721 ft 403 kts 311°
2026-04-29 10:59 33.63385 70.83981 35723 ft 402 kts 312°
2026-04-29 11:00 33.67426 70.79388 35723 ft 402 kts 313°
2026-04-29 11:00 33.71493 70.74783 35723 ft 402 kts 313°
2026-04-29 11:01 33.75567 70.70174 35723 ft 403 kts 313°
2026-04-29 11:01 33.79594 70.65588 35722 ft 402 kts 312°
2026-04-29 11:02 33.83625 70.60964 35722 ft 402 kts 313°
2026-04-29 11:02 33.87704 70.56344 35722 ft 402 kts 313°
2026-04-29 11:03 33.91684 70.51668 35723 ft 400 kts 308°
2026-04-29 11:03 33.94839 70.46277 35724 ft 395 kts 296°
2026-04-29 11:04 33.97421 70.40429 35723 ft 395 kts 297°
2026-04-29 11:04 34.00055 70.34627 35723 ft 396 kts 296°
2026-04-29 11:05 34.02642 70.28785 35722 ft 395 kts 296°
2026-04-29 11:05 34.05225 70.22955 35723 ft 396 kts 296°
2026-04-29 11:06 34.07793 70.17117 35722 ft 396 kts 296°
2026-04-29 11:06 34.10355 70.11262 35723 ft 395 kts 296°
2026-04-29 11:07 34.12922 70.05420 35722 ft 394 kts 296°
2026-04-29 11:07 34.15494 69.99559 35724 ft 396 kts 296°
2026-04-29 11:08 34.18049 69.93710 35722 ft 396 kts 296°
2026-04-29 11:08 34.20603 69.87823 35723 ft 395 kts 296°
2026-04-29 11:09 34.23134 69.81970 35723 ft 395 kts 296°
2026-04-29 11:09 34.25672 69.76080 35722 ft 395 kts 296°
2026-04-29 11:10 34.28163 69.70215 35722 ft 395 kts 295°
2026-04-29 11:10 34.30684 69.64312 35722 ft 395 kts 296°
2026-04-29 11:11 34.33205 69.58445 35723 ft 396 kts 296°
2026-04-29 11:11 34.35719 69.52531 35723 ft 396 kts 296°
2026-04-29 11:12 34.38229 69.46633 35722 ft 395 kts 296°
2026-04-29 11:12 34.40737 69.40738 35723 ft 396 kts 296°
2026-04-29 11:13 34.43283 69.34811 35722 ft 396 kts 295°
2026-04-29 11:13 34.45800 69.28924 35721 ft 394 kts 295°
2026-04-29 11:14 34.48272 69.23035 35723 ft 395 kts 295°
2026-04-29 11:14 34.50787 69.17118 35723 ft 396 kts 296°
2026-04-29 11:15 34.53820 69.11535 35723 ft 397 kts 303°
2026-04-29 11:15 34.57071 69.06100 35723 ft 398 kts 303°
2026-04-29 11:16 34.60285 69.00646 35722 ft 399 kts 303°
2026-04-29 11:16 34.63551 68.95201 35722 ft 400 kts 303°
2026-04-29 11:17 34.66808 68.89739 35697 ft 401 kts 303°
2026-04-29 11:17 34.70050 68.84283 35696 ft 402 kts 303°
2026-04-29 11:18 34.73325 68.78768 35699 ft 402 kts 303°
2026-04-29 11:18 34.76563 68.73287 35723 ft 401 kts 303°
2026-04-29 11:19 34.79829 68.67812 35766 ft 401 kts 303°
2026-04-29 11:19 34.83099 68.62305 35822 ft 402 kts 303°
2026-04-29 11:20 34.86344 68.56787 35865 ft 401 kts 303°
2026-04-29 11:20 34.89600 68.51289 35883 ft 401 kts 303°
2026-04-29 11:21 34.92852 68.45815 35884 ft 400 kts 303°
2026-04-29 11:21 34.96076 68.40333 35885 ft 400 kts 303°
2026-04-29 11:22 34.99291 68.34843 35885 ft 400 kts 303°
2026-04-29 11:22 35.02557 68.29328 35884 ft 401 kts 303°
2026-04-29 11:23 35.05798 68.23809 35885 ft 400 kts 303°
2026-04-29 11:23 35.08931 68.18232 35885 ft 400 kts 302°
2026-04-29 11:24 35.12075 68.12652 35884 ft 400 kts 302°
2026-04-29 11:24 35.15240 68.07081 35884 ft 399 kts 302°
2026-04-29 11:25 35.18385 68.01498 35884 ft 400 kts 302°
2026-04-29 11:25 35.21508 67.95921 35885 ft 400 kts 302°
2026-04-29 11:26 35.26233 67.87543 35885 ft 400 kts 302°
2026-04-29 11:26 35.29349 67.81954 35884 ft 400 kts 302°
2026-04-29 11:27 35.32534 67.76386 35886 ft 399 kts 303°
2026-04-29 11:27 35.35717 67.70826 35886 ft 400 kts 303°
2026-04-29 11:28 35.38884 67.65248 35885 ft 400 kts 303°
2026-04-29 11:28 35.42073 67.59654 35884 ft 401 kts 303°
2026-04-29 11:29 35.45233 67.54108 35884 ft 400 kts 303°
2026-04-29 11:29 35.48414 67.48523 35885 ft 399 kts 303°
2026-04-29 11:30 35.51570 67.42928 35884 ft 399 kts 303°
2026-04-29 11:30 35.54705 67.37344 35885 ft 400 kts 303°
2026-04-29 11:31 35.57878 67.31709 35884 ft 400 kts 302°
2026-04-29 11:31 35.61022 67.26144 35885 ft 399 kts 302°
2026-04-29 11:32 35.64166 67.20518 35886 ft 400 kts 302°
2026-04-29 11:32 35.67299 67.14912 35885 ft 400 kts 302°
2026-04-29 11:33 35.70435 67.09303 35884 ft 399 kts 302°
2026-04-29 11:33 35.73586 67.03687 35885 ft 399 kts 302°
2026-04-29 11:34 35.76738 66.98092 35884 ft 399 kts 301°
2026-04-29 11:34 35.79874 66.92493 35884 ft 398 kts 301°
2026-04-29 11:35 35.83010 66.86870 35885 ft 399 kts 301°
2026-04-29 11:35 35.86131 66.81269 35884 ft 398 kts 301°
2026-04-29 11:36 35.89257 66.75671 35885 ft 399 kts 301°
2026-04-29 11:36 35.92428 66.70033 35884 ft 399 kts 301°
2026-04-29 11:37 35.95562 66.64420 35886 ft 399 kts 301°
2026-04-29 11:37 35.98679 66.58775 35886 ft 399 kts 301°
2026-04-29 11:38 36.01798 66.53146 35886 ft 399 kts 301°
2026-04-29 11:38 36.04947 66.47516 35883 ft 398 kts 301°
2026-04-29 11:39 36.08063 66.41891 35885 ft 398 kts 301°
2026-04-29 11:39 36.11158 66.36249 35885 ft 399 kts 301°
2026-04-29 11:40 36.14317 66.30580 35884 ft 399 kts 301°
2026-04-29 11:40 36.17408 66.24957 35886 ft 398 kts 300°
2026-04-29 11:41 36.20506 66.19269 35884 ft 398 kts 301°
2026-04-29 11:41 36.23590 66.13632 35885 ft 398 kts 301°
2026-04-29 11:42 36.26723 66.07942 35885 ft 399 kts 301°
2026-04-29 11:42 36.29833 66.02295 35884 ft 398 kts 301°
2026-04-29 11:43 36.32921 65.96671 35884 ft 398 kts 301°
2026-04-29 11:43 36.36037 65.90969 35884 ft 399 kts 300°
2026-04-29 11:44 36.39116 65.85303 35886 ft 398 kts 301°
2026-04-29 11:44 36.42199 65.79632 35885 ft 397 kts 300°
2026-04-29 11:45 36.45258 65.73908 35884 ft 399 kts 300°
2026-04-29 11:45 36.48336 65.68180 35884 ft 399 kts 301°
2026-04-29 11:46 36.51406 65.62527 35884 ft 397 kts 301°
2026-04-29 11:46 36.54475 65.56829 35884 ft 398 kts 300°
2026-04-29 11:47 36.57540 65.51101 35885 ft 398 kts 300°
2026-04-29 11:47 36.60609 65.45364 35883 ft 398 kts 301°
2026-04-29 11:48 36.63681 65.39688 35885 ft 397 kts 301°
2026-04-29 11:48 36.66748 65.33980 35885 ft 398 kts 300°
2026-04-29 11:49 36.69795 65.28239 35884 ft 397 kts 300°
2026-04-29 11:49 36.72844 65.22540 35885 ft 398 kts 300°
2026-04-29 11:50 36.75899 65.16801 35886 ft 399 kts 300°
2026-04-29 11:50 36.78958 65.11063 35885 ft 398 kts 300°
2026-04-29 11:51 36.82013 65.05318 35885 ft 397 kts 300°
2026-04-29 11:51 36.85032 64.99580 35886 ft 399 kts 300°
2026-04-29 11:52 36.88071 64.93813 35884 ft 398 kts 299°
2026-04-29 11:52 36.91104 64.88047 35885 ft 399 kts 300°
2026-04-29 11:53 36.94164 64.82239 35886 ft 399 kts 298°
2026-04-29 11:53 36.96591 64.76125 35886 ft 394 kts 285°
2026-04-29 11:54 36.98150 64.69585 35883 ft 393 kts 285°
2026-04-29 11:54 36.99816 64.63047 35886 ft 394 kts 285°
2026-04-29 11:55 37.01414 64.56507 35884 ft 396 kts 285°
2026-04-29 11:55 37.02986 64.49941 35884 ft 396 kts 285°
2026-04-29 11:56 37.04562 64.43310 35885 ft 397 kts 285°
2026-04-29 11:56 37.06164 64.36700 35885 ft 398 kts 285°
2026-04-29 11:57 37.07762 64.30061 35884 ft 399 kts 285°
2026-04-29 11:57 37.09333 64.23460 35883 ft 398 kts 285°
2026-04-29 11:58 37.10900 64.16788 35886 ft 402 kts 285°
2026-04-29 11:58 37.12468 64.10066 35884 ft 403 kts 284°
2026-04-29 11:59 37.14029 64.03366 35884 ft 401 kts 285°
2026-04-29 11:59 37.15588 63.96677 35885 ft 401 kts 285°
2026-04-29 12:00 37.17162 63.90002 35884 ft 402 kts 285°
2026-04-29 12:00 37.18727 63.83278 35884 ft 402 kts 285°
2026-04-29 12:01 37.20552 63.75473 35893 ft 401 kts 285°
2026-04-29 12:01 37.21848 63.69876 35900 ft 401 kts 285°
2026-04-29 12:02 37.23404 63.63162 35907 ft 401 kts 285°
2026-04-29 12:02 37.24959 63.56436 35912 ft 402 kts 285°
2026-04-29 12:03 37.26508 63.49719 35741 ft 403 kts 285°
2026-04-29 12:03 37.28028 63.43050 35752 ft 399 kts 285°
2026-04-29 12:04 37.29586 63.36350 35750 ft 402 kts 285°
2026-04-29 12:04 37.31162 63.29592 35749 ft 403 kts 284°
2026-04-29 12:05 37.32723 63.22824 35749 ft 401 kts 284°
2026-04-29 12:05 37.34241 63.16102 35750 ft 402 kts 284°
2026-04-29 12:06 37.35725 63.09382 35750 ft 401 kts 284°
2026-04-29 12:06 37.37230 63.02639 35751 ft 403 kts 284°
2026-04-29 12:07 37.39017 62.94770 35751 ft 404 kts 285°
2026-04-29 12:07 37.40311 62.89124 35750 ft 404 kts 285°
2026-04-29 12:08 37.41824 62.82304 35751 ft 406 kts 284°
2026-04-29 12:08 37.43317 62.75475 35749 ft 406 kts 284°
2026-04-29 12:09 37.44846 62.68635 35749 ft 404 kts 285°
2026-04-29 12:09 37.46370 62.61860 35763 ft 404 kts 284°
2026-04-29 12:10 37.47867 62.55096 35848 ft 403 kts 284°
2026-04-29 12:10 37.49373 62.48300 35941 ft 404 kts 284°
2026-04-29 12:11 37.50857 62.41517 36031 ft 404 kts 285°
2026-04-29 12:11 37.52345 62.34715 36074 ft 404 kts 284°
2026-04-29 12:12 37.53811 62.27902 36073 ft 403 kts 284°
2026-04-29 12:12 37.55278 62.21116 36074 ft 402 kts 284°
2026-04-29 12:13 37.56769 62.14339 36075 ft 402 kts 284°
2026-04-29 12:13 37.58235 62.07525 36074 ft 404 kts 283°
2026-04-29 12:14 37.59683 62.00721 36073 ft 403 kts 284°
2026-04-29 12:14 37.61144 61.93941 36074 ft 403 kts 284°
2026-04-29 12:15 37.62397 61.87048 36075 ft 403 kts 277°
2026-04-29 12:15 37.63047 61.80029 36073 ft 402 kts 277°
2026-04-29 12:16 37.63770 61.73079 36074 ft 402 kts 277°
2026-04-29 12:16 37.64476 61.66113 36073 ft 404 kts 277°
2026-04-29 12:17 37.65175 61.59104 36073 ft 402 kts 277°
2026-04-29 12:17 37.65860 61.52088 36073 ft 402 kts 277°
2026-04-29 12:18 37.66544 61.45095 36074 ft 402 kts 277°
2026-04-29 12:18 37.67219 61.38080 35878 ft 405 kts 277°
2026-04-29 12:19 37.67852 61.31093 35885 ft 401 kts 276°
2026-04-29 12:19 37.68489 61.24121 35885 ft 403 kts 276°
2026-04-29 12:20 37.69148 61.17056 35885 ft 405 kts 276°
2026-04-29 12:20 37.69799 61.10039 35884 ft 405 kts 276°
2026-04-29 12:21 37.70452 61.02959 35885 ft 407 kts 276°
2026-04-29 12:21 37.71103 60.95864 35885 ft 410 kts 276°
2026-04-29 12:22 37.71756 60.88701 35886 ft 410 kts 277°
2026-04-29 12:22 37.72416 60.81613 35884 ft 408 kts 277°
2026-04-29 12:23 37.73055 60.74512 35885 ft 409 kts 276°
2026-04-29 12:23 37.73372 60.70936 35611 ft 405 kts 276°
2026-04-29 12:23 37.73685 60.67444 34993 ft 402 kts 277°
2026-04-29 12:24 37.73995 60.63941 34310 ft 402 kts 276°
2026-04-29 12:24 37.74306 60.60464 33611 ft 405 kts 276°
2026-04-29 12:24 37.74627 60.56916 32875 ft 411 kts 277°
2026-04-29 12:24 37.74958 60.53349 32322 ft 406 kts 277°
2026-04-29 12:25 37.75345 60.49855 31784 ft 401 kts 279°
2026-04-29 12:25 37.75785 60.46537 31265 ft 396 kts 279°
2026-04-29 12:25 37.76666 60.39711 30221 ft 398 kts 278°
2026-04-29 12:26 37.77083 60.36299 29689 ft 393 kts 278°
2026-04-29 12:26 37.77494 60.32940 29168 ft 388 kts 278°
2026-04-29 12:26 37.77903 60.29592 28647 ft 383 kts 278°
2026-04-29 12:26 37.78306 60.26288 28130 ft 380 kts 278°
2026-04-29 12:27 37.78711 60.22988 27615 ft 385 kts 278°
2026-04-29 12:27 37.79122 60.19666 27075 ft 381 kts 278°
2026-04-29 12:27 37.79532 60.16389 26542 ft 376 kts 278°
2026-04-29 12:27 37.79937 60.13122 26013 ft 372 kts 278°
2026-04-29 12:28 37.80322 60.09946 25496 ft 368 kts 277°
2026-04-29 12:28 37.80701 60.06788 24984 ft 366 kts 277°
2026-04-29 12:28 37.81089 60.03565 24458 ft 369 kts 277°
2026-04-29 12:28 37.81471 60.00386 23933 ft 365 kts 277°
2026-04-29 12:29 37.81849 59.97242 23413 ft 361 kts 277°
2026-04-29 12:29 37.82222 59.94122 22895 ft 357 kts 277°
2026-04-29 12:29 37.82585 59.91077 22386 ft 353 kts 277°
2026-04-29 12:29 37.82948 59.88028 21878 ft 349 kts 277°
2026-04-29 12:30 37.83312 59.84959 21367 ft 353 kts 277°
2026-04-29 12:30 37.83675 59.81896 20849 ft 352 kts 277°
2026-04-29 12:30 37.84032 59.78882 20339 ft 348 kts 277°
2026-04-29 12:30 37.84385 59.75890 19835 ft 344 kts 277°
2026-04-29 12:31 37.84734 59.72924 19335 ft 340 kts 277°
2026-04-29 12:31 37.85079 59.69986 18841 ft 337 kts 277°
2026-04-29 12:31 37.85420 59.67075 18352 ft 336 kts 277°
2026-04-29 12:31 37.85764 59.64132 17856 ft 339 kts 277°
2026-04-29 12:32 37.86105 59.61207 17356 ft 336 kts 277°
2026-04-29 12:32 37.86446 59.58284 16861 ft 332 kts 277°
2026-04-29 12:32 37.86776 59.55443 16378 ft 329 kts 277°
2026-04-29 12:32 37.87107 59.52587 15891 ft 325 kts 277°
2026-04-29 12:33 37.87431 59.49791 15415 ft 324 kts 277°
2026-04-29 12:33 37.87758 59.46944 14932 ft 329 kts 277°
2026-04-29 12:33 37.88087 59.44095 14436 ft 325 kts 277°
2026-04-29 12:33 37.88411 59.41276 13952 ft 322 kts 277°
2026-04-29 12:34 37.88731 59.38485 13470 ft 319 kts 277°
2026-04-29 12:34 37.89046 59.35731 12995 ft 316 kts 277°
2026-04-29 12:34 37.89294 59.32987 12518 ft 313 kts 273°
2026-04-29 12:34 37.89437 59.30244 12046 ft 311 kts 272°
2026-04-29 12:35 37.89593 59.27531 11584 ft 315 kts 273°
2026-04-29 12:35 37.89761 59.24771 11101 ft 313 kts 273°
2026-04-29 12:35 37.89925 59.22052 10654 ft 309 kts 273°
2026-04-29 12:35 37.90085 59.19378 10389 ft 300 kts 273°
2026-04-29 12:36 37.90239 59.16816 10276 ft 286 kts 273°
2026-04-29 12:36 37.90387 59.14340 10158 ft 273 kts 273°
2026-04-29 12:36 37.90526 59.12007 10035 ft 262 kts 273°
2026-04-29 12:36 37.90660 59.09743 9744 ft 259 kts 273°
2026-04-29 12:37 37.90793 59.07478 9433 ft 256 kts 273°
2026-04-29 12:37 37.90924 59.05253 9124 ft 253 kts 273°
2026-04-29 12:37 37.91054 59.03048 8823 ft 250 kts 273°
2026-04-29 12:37 37.91182 59.00856 8541 ft 245 kts 273°
2026-04-29 12:38 37.91305 58.98748 8228 ft 239 kts 273°
2026-04-29 12:38 37.91427 58.96671 7942 ft 232 kts 273°
2026-04-29 12:38 37.91546 58.94664 7670 ft 226 kts 273°
2026-04-29 12:38 37.91660 58.92688 7399 ft 220 kts 273°
2026-04-29 12:39 37.91768 58.90795 7140 ft 214 kts 272°
2026-04-29 12:39 37.91874 58.88957 6888 ft 208 kts 272°
2026-04-29 12:39 37.91977 58.87134 6638 ft 204 kts 272°
2026-04-29 12:39 37.92080 58.85339 6394 ft 204 kts 273°
2026-04-29 12:40 37.92182 58.83566 6141 ft 203 kts 273°
2026-04-29 12:40 37.92283 58.81780 5874 ft 203 kts 273°
2026-04-29 12:40 37.92384 58.80011 5626 ft 200 kts 273°
2026-04-29 12:40 37.92483 58.78267 5383 ft 201 kts 272°
2026-04-29 12:41 37.92582 58.76477 5138 ft 203 kts 272°
2026-04-29 12:41 37.92683 58.74711 4892 ft 201 kts 272°
2026-04-29 12:41 37.92780 58.72988 4660 ft 191 kts 273°
2026-04-29 12:41 37.92872 58.71360 4414 ft 181 kts 272°
2026-04-29 12:42 37.92958 58.69796 4215 ft 175 kts 273°
2026-04-29 12:42 37.93043 58.68261 4007 ft 177 kts 273°
2026-04-29 12:42 37.93131 58.66708 3789 ft 178 kts 272°
2026-04-29 12:42 37.93217 58.65151 3590 ft 176 kts 272°
2026-04-29 12:43 37.93301 58.63615 3500 ft 172 kts 273°
2026-04-29 12:43 37.93386 58.62075 3450 ft 174 kts 274°
2026-04-29 12:43 37.93444 58.60550 3341 ft 175 kts 264°
2026-04-29 12:43 37.92960 58.59174 3192 ft 174 kts 229°
2026-04-29 12:44 37.92165 58.57997 3055 ft 175 kts 244°
2026-04-29 12:44 37.91871 58.56535 2944 ft 172 kts 258°
2026-04-29 12:44 37.91501 58.55098 2770 ft 172 kts 247°
2026-04-29 12:44 37.91054 58.53724 2605 ft 163 kts 249°
2026-04-29 12:45 37.90818 58.52359 2470 ft 160 kts 281°
2026-04-29 12:45 37.91285 58.51066 2540 ft 170 kts 297°
2026-04-29 12:45 37.91801 58.49762 2483 ft 161 kts 295°
2026-04-29 12:45 37.92337 58.48478 2480 ft 165 kts 297°
2026-04-29 12:46 37.92889 58.47236 2538 ft 164 kts 297°
2026-04-29 12:46 37.93449 58.45977 2279 ft 162 kts 298°
2026-04-29 12:46 37.93997 58.44753 2048 ft 160 kts 298°
2026-04-29 12:46 37.94555 58.43527 1832 ft 160 kts 298°
2026-04-29 12:47 37.95088 58.42316 1587 ft 156 kts 296°
2026-04-29 12:47 37.95621 58.41125 1351 ft 154 kts 299°
2026-04-29 12:47 37.96153 58.39951 1152 ft 154 kts 297°
2026-04-29 12:47 37.96690 58.38747 970 ft 158 kts 297°
2026-04-29 12:48 37.97224 58.37535 757 ft 155 kts 298°
2026-04-29 12:48 37.97731 58.36411 700 ft 127 kts 298°
2026-04-29 12:48 37.97998 58.35806 699 ft 39 kts 298°
2026-04-29 12:48 37.98072 58.35639 699 ft 20 kts 302°
2026-04-29 12:49 37.98162 58.35444 699 ft 27 kts 301°
2026-04-29 12:49 37.98298 58.35288 699 ft 25 kts 327°
2026-04-29 12:49 37.98448 58.35170 699 ft 22 kts 346°
2026-04-29 12:49 37.98473 58.35294 699 ft 22 kts 118°
2026-04-29 12:50 37.98372 58.35514 699 ft 33 kts 120°
2026-04-29 12:50 37.98254 58.35786 699 ft 35 kts 120°
2026-04-29 12:50 37.98141 58.36041 699 ft 30 kts 120°
2026-04-29 12:50 37.98044 58.36256 699 ft 25 kts 120°
2026-04-29 12:51 37.97962 58.36441 699 ft 22 kts 119°
2026-04-29 12:51 37.97890 58.36604 699 ft 21 kts 119°
2026-04-29 12:51 37.97785 58.36718 699 ft 20 kts 193°
2026-04-29 12:51 37.97636 58.36621 699 ft 28 kts 210°
2026-04-29 12:52 37.97427 58.36561 699 ft 33 kts 157°
2026-04-29 12:52 37.97236 58.36698 699 ft 30 kts 150°
2026-04-29 12:52 37.97056 58.36827 699 ft 29 kts 152°
2026-04-29 12:52 37.96897 58.36947 699 ft 24 kts 146°
2026-04-29 12:53 37.96775 58.37112 699 ft 24 kts 129°
2026-04-29 12:53 37.96724 58.37219 699 ft 10 kts 76°
2026-04-29 12:53 37.96756 58.37270 699 ft 3 kts 83°
2026-04-29 12:53 37.96743 58.37302 699 ft 7 kts 127°
2026-04-29 12:54 37.96723 58.37334 699 ft 0 kts 128°